| time (UTC) | temp F | wind direction | speed MPH | gust MPH | rain 1hr in | rain 24hr in | rain mn in | humidity % | barometer mb |
| 20260508025207 | 58 | 40 | 2.0 | 7.0 | 0.00 | 0.13 | 0.13 | 42 | 1005.8 |
| 20260508024207 | 59 | 66 | 2.0 | 5.0 | 0.00 | 0.13 | 0.13 | 38 | 1005.8 |
| 20260508023706 | 59 | 19 | 3.0 | 7.0 | 0.00 | 0.13 | 0.13 | 38 | 1005.8 |
| 20260508023207 | 59 | 353 | 3.0 | 7.0 | 0.00 | 0.13 | 0.13 | 38 | 1005.8 |
| 20260508022708 | 59 | 11 | 2.0 | 6.0 | 0.00 | 0.13 | 0.13 | 39 | 1005.8 |
| 20260508021707 | 59 | 27 | 3.0 | 6.0 | 0.00 | 0.13 | 0.13 | 38 | 1005.7 |
| 20260508021207 | 59 | 333 | 3.0 | 5.0 | 0.00 | 0.13 | 0.13 | 37 | 1005.7 |
| 20260508020706 | 60 | 355 | 3.0 | 6.0 | 0.00 | 0.15 | 0.13 | 36 | 1005.6 |
| 20260508020208 | 60 | 5 | 2.0 | 6.0 | 0.00 | 0.18 | 0.13 | 36 | 1005.5 |
| 20260508015206 | 60 | 5 | 2.0 | 5.0 | 0.00 | 0.22 | 0.13 | 35 | 1005.5 |
| 20260508014707 | 60 | 336 | 2.0 | 5.0 | 0.00 | 0.31 | 0.13 | 35 | 1005.5 |
| 20260508013706 | 60 | 40 | 3.0 | 6.0 | 0.00 | 0.35 | 0.13 | 34 | 1005.5 |
| 20260508013208 | 60 | 5 | 2.0 | 6.0 | 0.00 | 0.37 | 0.13 | 34 | 1005.6 |
| 20260508012706 | 60 | 311 | 2.0 | 6.0 | 0.00 | 0.39 | 0.13 | 34 | 1005.7 |
| 20260508012206 | 60 | 0 | 3.0 | 6.0 | 0.00 | 0.39 | 0.13 | 34 | 1005.6 |
| 20260508011706 | 60 | 327 | 3.0 | 6.0 | 0.00 | 0.39 | 0.13 | 34 | 1005.6 |
| 20260508011207 | 60 | 296 | 1.0 | 5.0 | 0.00 | 0.39 | 0.13 | 34 | 1005.5 |
| 20260508010707 | 61 | 323 | 1.0 | 5.0 | 0.00 | 0.39 | 0.13 | 34 | 1005.5 |
| 20260508010207 | 61 | 5 | 1.0 | 5.0 | 0.00 | 0.39 | 0.13 | 33 | 1005.3 |
| 20260508005706 | 61 | 302 | 2.0 | 6.0 | 0.00 | 0.39 | 0.13 | 33 | 1005.4 |
| 20260508005206 | 61 | 338 | 2.0 | 6.0 | 0.00 | 0.39 | 0.13 | 33 | 1005.2 |
| 20260508004707 | 61 | 330 | 3.0 | 8.0 | 0.00 | 0.39 | 0.13 | 33 | 1005.3 |
| 20260508004208 | 61 | 17 | 3.0 | 8.0 | 0.00 | 0.39 | 0.13 | 33 | 1005.2 |
| 20260508003706 | 61 | 313 | 3.0 | 8.0 | 0.00 | 0.39 | 0.13 | 34 | 1005.1 |
| 20260508003206 | 61 | 345 | 3.0 | 8.0 | 0.00 | 0.39 | 0.13 | 33 | 1005.2 |
| 20260508002206 | 61 | 5 | 3.0 | 8.0 | 0.00 | 0.39 | 0.13 | 33 | 1004.8 |
| 20260508001706 | 61 | 348 | 1.0 | 8.0 | 0.00 | 0.39 | 0.13 | 33 | 1004.8 |
| 20260508000706 | 62 | 5 | 2.0 | 5.0 | 0.00 | 0.39 | 0.13 | 33 | 1004.7 |
| 20260508000206 | 62 | 33 | 2.0 | 9.0 | 0.00 | 0.39 | 0.13 | 32 | 1004.7 |
| 20260507235706 | 62 | 286 | 3.0 | 10.0 | 0.00 | 0.39 | 0.13 | 31 | 1004.6 |
| 20260507234706 | 62 | 34 | 3.0 | 9.0 | 0.00 | 0.39 | 0.13 | 32 | 1004.6 |
| 20260507234207 | 62 | 310 | 4.0 | 9.0 | 0.00 | 0.39 | 0.13 | 31 | 1004.6 |
| 20260507233706 | 62 | 356 | 4.0 | 9.0 | 0.00 | 0.39 | 0.13 | 31 | 1004.4 |
| 20260507232706 | 63 | 350 | 4.0 | 10.0 | 0.00 | 0.39 | 0.13 | 31 | 1004.3 |
| 20260507232206 | 63 | 15 | 4.0 | 10.0 | 0.00 | 0.39 | 0.13 | 30 | 1004.4 |
| 20260507231706 | 63 | 338 | 2.0 | 9.0 | 0.00 | 0.39 | 0.13 | 30 | 1004.3 |
| 20260507231207 | 63 | 30 | 3.0 | 8.0 | 0.00 | 0.39 | 0.13 | 30 | 1004.4 |
| 20260507230707 | 63 | 316 | 5.0 | 12.0 | 0.00 | 0.39 | 0.13 | 30 | 1004.4 |
| 20260507225706 | 63 | 338 | 5.0 | 12.0 | 0.00 | 0.39 | 0.13 | 30 | 1004.4 |
| 20260507224706 | 64 | 336 | 5.0 | 10.0 | 0.00 | 0.39 | 0.13 | 30 | 1004.2 |
| 20260507224207 | 64 | 17 | 5.0 | 10.0 | 0.00 | 0.39 | 0.13 | 29 | 1004.2 |
| 20260507223707 | 64 | 307 | 3.0 | 12.0 | 0.00 | 0.39 | 0.13 | 30 | 1004.2 |
| 20260507223206 | 64 | 40 | 3.0 | 12.0 | 0.00 | 0.39 | 0.13 | 29 | 1004.2 |
| 20260507222707 | 64 | 319 | 4.0 | 13.0 | 0.00 | 0.39 | 0.13 | 29 | 1004.2 |
| 20260507221706 | 65 | 314 | 4.0 | 12.0 | 0.00 | 0.39 | 0.13 | 29 | 1004.0 |
| 20260507221206 | 65 | 284 | 3.0 | 12.0 | 0.00 | 0.39 | 0.13 | 29 | 1004.2 |
| 20260507220706 | 65 | 283 | 5.0 | 12.0 | 0.00 | 0.39 | 0.13 | 28 | 1004.2 |
| 20260507220206 | 66 | 219 | 4.0 | 12.0 | 0.00 | 0.39 | 0.13 | 28 | 1004.2 |
| 20260507215706 | 66 | 247 | 2.0 | 10.0 | 0.00 | 0.39 | 0.13 | 28 | 1004.1 |
| 20260507215206 | 65 | 309 | 3.0 | 12.0 | 0.00 | 0.39 | 0.13 | 29 | 1004.1 |
| 20260507214706 | 65 | 282 | 3.0 | 12.0 | 0.00 | 0.39 | 0.13 | 28 | 1004.1 |
| 20260507214206 | 65 | 285 | 3.0 | 12.0 | 0.00 | 0.39 | 0.13 | 29 | 1004.2 |
| 20260507213206 | 65 | 302 | 6.0 | 14.0 | 0.00 | 0.39 | 0.13 | 28 | 1004.1 |
| 20260507212706 | 65 | 243 | 3.0 | 14.0 | 0.00 | 0.39 | 0.13 | 29 | 1004.0 |
| 20260507211706 | 64 | 287 | 5.0 | 13.0 | 0.00 | 0.39 | 0.13 | 29 | 1004.0 |
| 20260507210707 | 64 | 324 | 4.0 | 8.0 | 0.00 | 0.39 | 0.13 | 30 | 1003.9 |
| 20260507210206 | 65 | 317 | 3.0 | 10.0 | 0.00 | 0.39 | 0.13 | 30 | 1003.8 |
| 20260507205706 | 64 | 290 | 4.0 | 10.0 | 0.00 | 0.39 | 0.13 | 30 | 1003.9 |
| 20260507205206 | 64 | 307 | 3.0 | 13.0 | 0.00 | 0.39 | 0.13 | 30 | 1003.9 |
| 20260507203706 | 66 | 296 | 5.0 | 9.0 | 0.00 | 0.39 | 0.13 | 29 | 1004.0 |
| 20260507202706 | 65 | 310 | 3.0 | 12.0 | 0.00 | 0.39 | 0.13 | 29 | 1004.0 |
| 20260507202206 | 65 | 261 | 5.0 | 13.0 | 0.00 | 0.39 | 0.13 | 29 | 1004.0 |
| 20260507200706 | 66 | 127 | 5.0 | 12.0 | 0.00 | 0.39 | 0.13 | 29 | 1004.0 |
| 20260507200207 | 65 | 311 | 5.0 | 12.0 | 0.00 | 0.39 | 0.13 | 29 | 1004.0 |
| 20260507194706 | 66 | 320 | 6.0 | 14.0 | 0.00 | 0.39 | 0.13 | 28 | 1004.2 |
| 20260507194207 | 65 | 347 | 4.0 | 14.0 | 0.00 | 0.39 | 0.13 | 29 | 1004.1 |
| 20260507193206 | 66 | 266 | 6.0 | 14.0 | 0.00 | 0.39 | 0.13 | 29 | 1004.4 |
| 20260507192206 | 65 | 334 | 3.0 | 14.0 | 0.00 | 0.39 | 0.13 | 29 | 1004.3 |
| 20260507191706 | 65 | 231 | 6.0 | 14.0 | 0.00 | 0.39 | 0.13 | 28 | 1004.4 |
| 20260507190706 | 64 | 294 | 3.0 | 12.0 | 0.00 | 0.39 | 0.13 | 29 | 1004.4 |
| 20260507190206 | 65 | 329 | 7.0 | 12.0 | 0.00 | 0.39 | 0.13 | 28 | 1004.5 |
| 20260507185206 | 64 | 263 | 3.0 | 14.0 | 0.00 | 0.39 | 0.13 | 29 | 1004.7 |
| 20260507184706 | 64 | 347 | 7.0 | 14.0 | 0.00 | 0.39 | 0.13 | 29 | 1004.7 |
| 20260507184206 | 64 | 19 | 8.0 | 14.0 | 0.00 | 0.39 | 0.13 | 28 | 1004.9 |
| 20260507183706 | 65 | 331 | 5.0 | 12.0 | 0.00 | 0.39 | 0.13 | 29 | 1004.8 |
| 20260507183206 | 65 | 262 | 5.0 | 12.0 | 0.00 | 0.39 | 0.13 | 31 | 1004.8 |
| 20260507182705 | 65 | 266 | 4.0 | 12.0 | 0.00 | 0.39 | 0.13 | 29 | 1004.8 |
| 20260507182206 | 64 | 291 | 3.0 | 12.0 | 0.00 | 0.39 | 0.13 | 30 | 1004.9 |
| 20260507181205 | 64 | 331 | 2.0 | 12.0 | 0.00 | 0.39 | 0.13 | 30 | 1005.0 |
| 20260507180705 | 64 | 235 | 6.0 | 12.0 | 0.00 | 0.39 | 0.13 | 30 | 1005.1 |
| 20260507175706 | 64 | 345 | 5.0 | 14.0 | 0.00 | 0.39 | 0.13 | 29 | 1005.3 |
| 20260507175206 | 65 | 285 | 5.0 | 14.0 | 0.00 | 0.40 | 0.13 | 29 | 1005.3 |
| 20260507174705 | 64 | 327 | 2.0 | 12.0 | 0.00 | 0.40 | 0.13 | 28 | 1005.4 |
| 20260507174206 | 64 | 278 | 4.0 | 15.0 | 0.00 | 0.40 | 0.13 | 29 | 1005.4 |
| 20260507173706 | 63 | 317 | 6.0 | 15.0 | 0.00 | 0.40 | 0.13 | 29 | 1005.4 |
| 20260507173206 | 64 | 326 | 6.0 | 12.0 | 0.00 | 0.40 | 0.13 | 29 | 1005.4 |
| 20260507172206 | 63 | 253 | 3.0 | 9.0 | 0.00 | 0.40 | 0.13 | 30 | 1005.6 |
| 20260507171706 | 62 | 4 | 3.0 | 12.0 | 0.00 | 0.40 | 0.13 | 30 | 1005.6 |
| 20260507171206 | 62 | 293 | 5.0 | 16.0 | 0.00 | 0.40 | 0.13 | 30 | 1005.9 |
| 20260507170706 | 63 | 334 | 8.0 | 16.0 | 0.00 | 0.40 | 0.13 | 29 | 1005.9 |
| 20260507170206 | 63 | 349 | 5.0 | 14.0 | 0.00 | 0.40 | 0.13 | 30 | 1005.9 |
| 20260507165706 | 63 | 334 | 5.0 | 14.0 | 0.00 | 0.40 | 0.13 | 29 | 1006.1 |
| 20260507165205 | 63 | 321 | 5.0 | 12.0 | 0.00 | 0.41 | 0.13 | 29 | 1006.0 |
| 20260507164706 | 62 | 282 | 4.0 | 12.0 | 0.00 | 0.41 | 0.13 | 30 | 1006.2 |
| 20260507164206 | 63 | 254 | 5.0 | 12.0 | 0.00 | 0.41 | 0.13 | 29 | 1006.2 |
| 20260507163705 | 63 | 299 | 3.0 | 12.0 | 0.00 | 0.41 | 0.13 | 31 | 1006.1 |
| 20260507163206 | 63 | 300 | 5.0 | 14.0 | 0.00 | 0.41 | 0.13 | 29 | 1006.2 |
| 20260507162705 | 62 | 331 | 5.0 | 14.0 | 0.00 | 0.41 | 0.13 | 30 | 1006.3 |
| 20260507162205 | 62 | 0 | 5.0 | 12.0 | 0.00 | 0.41 | 0.13 | 31 | 1006.3 |
| 20260507161706 | 61 | 344 | 6.0 | 12.0 | 0.00 | 0.41 | 0.13 | 30 | 1006.6 |
| 20260507161206 | 62 | 312 | 5.0 | 12.0 | 0.00 | 0.41 | 0.13 | 30 | 1006.8 |
| 20260507160706 | 62 | 267 | 6.0 | 12.0 | 0.00 | 0.41 | 0.13 | 30 | 1006.9 |
| 20260507160206 | 61 | 12 | 2.0 | 14.0 | 0.00 | 0.41 | 0.13 | 32 | 1007.0 |
| 20260507155706 | 61 | 301 | 6.0 | 14.0 | 0.00 | 0.41 | 0.13 | 30 | 1007.0 |
| 20260507155206 | 61 | 304 | 7.0 | 15.0 | 0.00 | 0.41 | 0.13 | 31 | 1007.1 |
| 20260507154706 | 61 | 343 | 8.0 | 15.0 | 0.00 | 0.41 | 0.13 | 31 | 1007.1 |
| 20260507154206 | 61 | 316 | 6.0 | 15.0 | 0.00 | 0.41 | 0.13 | 32 | 1007.2 |
| 20260507153706 | 61 | 324 | 5.0 | 15.0 | 0.00 | 0.41 | 0.13 | 32 | 1007.3 |
| 20260507153205 | 61 | 348 | 5.0 | 14.0 | 0.00 | 0.41 | 0.13 | 31 | 1007.3 |
| 20260507152706 | 61 | 324 | 6.0 | 14.0 | 0.00 | 0.41 | 0.13 | 30 | 1007.4 |
| 20260507152206 | 61 | 339 | 6.0 | 14.0 | 0.00 | 0.41 | 0.13 | 31 | 1007.4 |
| 20260507151705 | 60 | 318 | 6.0 | 14.0 | 0.00 | 0.41 | 0.13 | 30 | 1007.4 |
| 20260507151206 | 61 | 355 | 7.0 | 14.0 | 0.00 | 0.41 | 0.13 | 28 | 1007.5 |
| 20260507150706 | 61 | 281 | 3.0 | 14.0 | 0.00 | 0.41 | 0.13 | 33 | 1007.4 |
| 20260507150206 | 60 | 326 | 8.0 | 14.0 | 0.00 | 0.41 | 0.13 | 30 | 1007.5 |
| 20260507145706 | 61 | 296 | 6.0 | 14.0 | 0.00 | 0.41 | 0.13 | 34 | 1007.7 |
| 20260507145205 | 60 | 0 | 5.0 | 14.0 | 0.00 | 0.41 | 0.13 | 36 | 1007.6 |
| 20260507144705 | 60 | 10 | 7.0 | 14.0 | 0.00 | 0.41 | 0.13 | 35 | 1007.7 |
| 20260507144206 | 59 | 317 | 5.0 | 13.0 | 0.00 | 0.41 | 0.13 | 36 | 1007.6 |
| 20260507143705 | 59 | 313 | 5.0 | 14.0 | 0.00 | 0.41 | 0.13 | 36 | 1007.6 |
| 20260507143205 | 59 | 40 | 7.0 | 14.0 | 0.00 | 0.41 | 0.13 | 36 | 1007.5 |
| 20260507142705 | 59 | 0 | 5.0 | 13.0 | 0.00 | 0.41 | 0.13 | 38 | 1007.6 |
| 20260507142206 | 59 | 300 | 6.0 | 13.0 | 0.00 | 0.41 | 0.13 | 37 | 1007.6 |
| 20260507141705 | 59 | 279 | 5.0 | 13.0 | 0.00 | 0.41 | 0.13 | 40 | 1007.6 |
| 20260507141205 | 59 | 251 | 3.0 | 9.0 | 0.00 | 0.41 | 0.13 | 46 | 1007.6 |
| 20260507140706 | 58 | 266 | 1.0 | 10.0 | 0.00 | 0.41 | 0.13 | 50 | 1007.6 |
| 20260507140207 | 58 | 321 | 3.0 | 12.0 | 0.00 | 0.41 | 0.13 | 50 | 1007.7 |
| 20260507134706 | 57 | 311 | 4.0 | 14.0 | 0.00 | 0.41 | 0.13 | 53 | 1007.6 |
| 20260507134205 | 57 | 337 | 6.0 | 14.0 | 0.00 | 0.41 | 0.13 | 53 | 1007.5 |
| 20260507133705 | 57 | 304 | 5.0 | 14.0 | 0.00 | 0.41 | 0.13 | 58 | 1007.6 |
| 20260507133205 | 56 | 351 | 3.0 | 12.0 | 0.00 | 0.41 | 0.13 | 60 | 1007.6 |
| 20260507132705 | 56 | 292 | 4.0 | 12.0 | 0.00 | 0.41 | 0.13 | 61 | 1007.7 |
| 20260507132207 | 56 | 333 | 5.0 | 12.0 | 0.00 | 0.41 | 0.13 | 61 | 1007.8 |
| 20260507131706 | 56 | 281 | 4.0 | 12.0 | 0.00 | 0.41 | 0.13 | 62 | 1007.7 |
| 20260507131205 | 56 | 312 | 5.0 | 12.0 | 0.00 | 0.41 | 0.13 | 63 | 1007.7 |
| 20260507130207 | 55 | 346 | 5.0 | 12.0 | 0.00 | 0.41 | 0.13 | 67 | 1007.8 |
| 20260507125705 | 54 | 255 | 5.0 | 12.0 | 0.00 | 0.41 | 0.13 | 71 | 1007.7 |
| 20260507125205 | 53 | 287 | 4.0 | 10.0 | 0.00 | 0.41 | 0.13 | 73 | 1007.6 |
| 20260507124705 | 53 | 301 | 2.0 | 10.0 | 0.00 | 0.41 | 0.13 | 75 | 1007.7 |
| 20260507124205 | 52 | 49 | 2.0 | 9.0 | 0.00 | 0.41 | 0.13 | 76 | 1007.8 |
| 20260507123706 | 52 | 291 | 2.0 | 9.0 | 0.00 | 0.41 | 0.13 | 76 | 1007.9 |
| 20260507123207 | 52 | 302 | 4.0 | 10.0 | 0.00 | 0.41 | 0.13 | 77 | 1008.0 |
| 20260507122706 | 51 | 339 | 3.0 | 10.0 | 0.00 | 0.41 | 0.13 | 77 | 1008.1 |
| 20260507122205 | 51 | 289 | 3.0 | 10.0 | 0.00 | 0.41 | 0.13 | 77 | 1007.9 |
| 20260507120705 | 51 | 355 | 2.0 | 9.0 | 0.00 | 0.41 | 0.13 | 78 | 1007.8 |
| 20260507120205 | 51 | 291 | 3.0 | 10.0 | 0.00 | 0.41 | 0.13 | 78 | 1007.7 |
| 20260507115706 | 51 | 290 | 4.0 | 12.0 | 0.00 | 0.41 | 0.13 | 78 | 1007.7 |
| 20260507115205 | 51 | 314 | 4.0 | 12.0 | 0.00 | 0.41 | 0.13 | 78 | 1007.6 |
| 20260507114707 | 51 | 275 | 3.0 | 9.0 | 0.00 | 0.41 | 0.13 | 79 | 1007.6 |
| 20260507114207 | 51 | 303 | 4.0 | 8.0 | 0.00 | 0.41 | 0.13 | 79 | 1007.7 |
| 20260507113705 | 51 | 300 | 3.0 | 7.0 | 0.00 | 0.41 | 0.13 | 79 | 1007.5 |
| 20260507113206 | 51 | 289 | 3.0 | 12.0 | 0.00 | 0.41 | 0.13 | 80 | 1007.3 |
| 20260507112205 | 51 | 301 | 4.0 | 12.0 | 0.00 | 0.41 | 0.13 | 80 | 1007.2 |
| 20260507111705 | 51 | 279 | 4.0 | 10.0 | 0.00 | 0.41 | 0.13 | 80 | 1007.0 |
| 20260507111205 | 51 | 340 | 2.0 | 8.0 | 0.00 | 0.41 | 0.13 | 81 | 1007.2 |
| 20260507110705 | 51 | 280 | 2.0 | 3.0 | 0.00 | 0.41 | 0.13 | 82 | 1007.0 |
| 20260507110205 | 51 | 295 | 1.0 | 6.0 | 0.00 | 0.41 | 0.13 | 81 | 1006.9 |
| 20260507105705 | 51 | 275 | 1.0 | 7.0 | 0.00 | 0.41 | 0.13 | 81 | 1006.7 |
| 20260507105205 | 51 | 0 | 2.0 | 8.0 | 0.00 | 0.41 | 0.13 | 82 | 1006.7 |
| 20260507104205 | 51 | 290 | 3.0 | 8.0 | 0.00 | 0.41 | 0.13 | 82 | 1006.7 |
| 20260507103205 | 51 | 298 | 2.0 | 9.0 | 0.00 | 0.41 | 0.13 | 83 | 1006.7 |
| 20260507102705 | 51 | 322 | 3.0 | 9.0 | 0.00 | 0.41 | 0.13 | 83 | 1006.6 |
| 20260507102205 | 50 | 286 | 2.0 | 8.0 | 0.00 | 0.41 | 0.13 | 84 | 1006.4 |
| 20260507100705 | 50 | 318 | 3.0 | 9.0 | 0.00 | 0.41 | 0.13 | 86 | 1006.3 |
| 20260507095706 | 50 | 284 | 3.0 | 8.0 | 0.00 | 0.41 | 0.13 | 87 | 1006.2 |
| 20260507095205 | 50 | 312 | 1.0 | 8.0 | 0.00 | 0.41 | 0.13 | 87 | 1006.1 |
| 20260507094705 | 50 | 271 | 3.0 | 8.0 | 0.00 | 0.41 | 0.13 | 87 | 1006.1 |
| 20260507094205 | 50 | 265 | 2.0 | 7.0 | 0.00 | 0.41 | 0.13 | 87 | 1006.1 |
| 20260507093705 | 50 | 301 | 2.0 | 7.0 | 0.00 | 0.41 | 0.13 | 87 | 1006.0 |
| 20260507093205 | 50 | 298 | 3.0 | 7.0 | 0.01 | 0.41 | 0.13 | 87 | 1006.1 |
| 20260507092705 | 50 | 321 | 2.0 | 7.0 | 0.01 | 0.41 | 0.13 | 87 | 1006.0 |
| 20260507092204 | 50 | 273 | 2.0 | 7.0 | 0.01 | 0.41 | 0.13 | 87 | 1006.0 |
| 20260507091205 | 50 | 286 | 1.0 | 3.0 | 0.01 | 0.41 | 0.13 | 87 | 1006.2 |
| 20260507090205 | 50 | 277 | 2.0 | 7.0 | 0.01 | 0.41 | 0.13 | 87 | 1006.0 |
| 20260507085705 | 50 | 256 | 2.0 | 5.0 | 0.01 | 0.41 | 0.13 | 87 | 1006.0 |
| 20260507084705 | 50 | 303 | 2.0 | 9.0 | 0.02 | 0.41 | 0.13 | 86 | 1006.0 |
| 20260507083706 | 50 | 278 | 4.0 | 10.0 | 0.02 | 0.41 | 0.13 | 86 | 1006.2 |
| 20260507083205 | 50 | 286 | 2.0 | 12.0 | 0.01 | 0.40 | 0.12 | 86 | 1006.0 |
| 20260507082705 | 50 | 277 | 3.0 | 12.0 | 0.01 | 0.40 | 0.12 | 86 | 1005.9 |
| 20260507082205 | 51 | 318 | 4.0 | 9.0 | 0.01 | 0.40 | 0.12 | 86 | 1006.0 |
| 20260507081705 | 51 | 287 | 3.0 | 10.0 | 0.02 | 0.40 | 0.12 | 86 | 1005.9 |
| 20260507081205 | 51 | 267 | 5.0 | 14.0 | 0.02 | 0.40 | 0.12 | 86 | 1006.0 |
| 20260507080705 | 51 | 267 | 5.0 | 14.0 | 0.03 | 0.40 | 0.12 | 86 | 1005.9 |
| 20260507080205 | 51 | 277 | 2.0 | 9.0 | 0.03 | 0.40 | 0.12 | 86 | 1006.4 |
| 20260507075705 | 51 | 312 | 3.0 | 9.0 | 0.03 | 0.40 | 0.12 | 86 | 1006.0 |
| 20260507075205 | 51 | 259 | 2.0 | 10.0 | 0.03 | 0.39 | 0.11 | 86 | 1006.6 |
| 20260507074705 | 51 | 264 | 3.0 | 10.0 | 0.03 | 0.39 | 0.11 | 86 | 1006.5 |
| 20260507074205 | 51 | 251 | 3.0 | 10.0 | 0.03 | 0.39 | 0.11 | 86 | 1006.5 |
| 20260507073705 | 51 | 277 | 3.0 | 12.0 | 0.04 | 0.39 | 0.11 | 85 | 1006.1 |
| 20260507073205 | 52 | 301 | 3.0 | 12.0 | 0.04 | 0.39 | 0.11 | 85 | 1006.2 |
| 20260507072705 | 52 | 266 | 2.0 | 12.0 | 0.04 | 0.39 | 0.11 | 85 | 1006.2 |
| 20260507072205 | 52 | 336 | 2.0 | 12.0 | 0.05 | 0.39 | 0.11 | 85 | 1006.2 |
| 20260507071705 | 52 | 307 | 1.0 | 12.0 | 0.06 | 0.38 | 0.10 | 85 | 1006.2 |
| 20260507071205 | 52 | 295 | 3.0 | 12.0 | 0.07 | 0.38 | 0.10 | 85 | 1006.1 |
| 20260507065705 | 53 | 260 | 2.0 | 10.0 | 0.07 | 0.37 | 0.09 | 85 | 1006.2 |
| 20260507065205 | 53 | 299 | 5.0 | 10.0 | 0.07 | 0.36 | 0.08 | 85 | 1005.8 |
| 20260507064705 | 53 | 259 | 2.0 | 5.0 | 0.08 | 0.36 | 0.08 | 84 | 1006.1 |
| 20260507064205 | 53 | 297 | 2.0 | 3.0 | 0.08 | 0.36 | 0.08 | 84 | 1006.1 |
| 20260507063705 | 53 | 274 | 1.0 | 5.0 | 0.07 | 0.35 | 0.07 | 84 | 1006.2 |
| 20260507063205 | 53 | 290 | 1.0 | 9.0 | 0.07 | 0.35 | 0.07 | 83 | 1006.0 |
| 20260507062704 | 53 | 260 | 4.0 | 9.0 | 0.07 | 0.35 | 0.07 | 83 | 1006.0 |
| 20260507062205 | 54 | 292 | 2.0 | 9.0 | 0.06 | 0.34 | 0.06 | 82 | 1005.9 |
| 20260507061705 | 54 | 284 | 2.0 | 7.0 | 0.04 | 0.32 | 0.04 | 81 | 1006.3 |
| 20260507061205 | 54 | 348 | 3.0 | 7.0 | 0.03 | 0.31 | 0.03 | 81 | 1005.6 |
| 20260507060705 | 54 | 62 | 3.0 | 7.0 | 0.02 | 0.30 | 0.02 | 80 | 1005.5 |
| 20260507055704 | 55 | 11 | 2.0 | 8.0 | 0.02 | 0.30 | 0.02 | 78 | 1005.6 |
| 20260507055205 | 55 | 231 | 1.0 | 8.0 | 0.01 | 0.29 | 0.01 | 77 | 1006.0 |
| 20260507054705 | 55 | 323 | 2.0 | 8.0 | 0.00 | 0.28 | 0.00 | 76 | 1005.7 |
| 20260507054205 | 55 | 300 | 4.0 | 9.0 | 0.00 | 0.28 | 0.00 | 75 | 1005.6 |
| 20260507053706 | 55 | 316 | 4.0 | 12.0 | 0.00 | 0.28 | 0.00 | 74 | 1005.6 |
| 20260507053204 | 55 | 298 | 3.0 | 12.0 | 0.00 | 0.28 | 0.00 | 74 | 1005.6 |
| 20260507052704 | 56 | 289 | 5.0 | 12.0 | 0.00 | 0.28 | 0.00 | 74 | 1005.1 |
| 20260507052204 | 56 | 223 | 5.0 | 12.0 | 0.00 | 0.28 | 0.00 | 74 | 1005.0 |
| 20260507051705 | 56 | 311 | 3.0 | 10.0 | 0.00 | 0.28 | 0.00 | 74 | 1005.1 |
| 20260507051209 | 57 | 257 | 3.0 | 10.0 | 0.00 | 0.28 | 0.00 | 73 | 1005.3 |
| 20260507050713 | 57 | 303 | 5.0 | 10.0 | 0.00 | 0.28 | 0.00 | 73 | 1005.4 |
| 20260507045707 | 57 | 275 | 2.0 | 7.0 | 0.00 | 0.28 | 0.00 | 73 | 1005.5 |
| 20260507045207 | 57 | 278 | 2.0 | 8.0 | 0.00 | 0.28 | 0.00 | 74 | 1005.6 |
| 20260507044706 | 57 | 9 | 2.0 | 8.0 | 0.00 | 0.28 | 0.00 | 73 | 1005.3 |
| 20260507043706 | 57 | 273 | 3.0 | 8.0 | 0.00 | 0.28 | 0.00 | 74 | 1005.3 |
| 20260507043206 | 57 | 270 | 2.0 | 10.0 | 0.00 | 0.28 | 0.00 | 74 | 1005.5 |
| 20260507042707 | 57 | 292 | 3.0 | 10.0 | 0.00 | 0.28 | 0.00 | 74 | 1005.4 |
| 20260507042207 | 57 | 313 | 5.0 | 9.0 | 0.00 | 0.28 | 0.00 | 74 | 1005.5 |
| 20260507041706 | 57 | 300 | 4.0 | 8.0 | 0.00 | 0.28 | 0.00 | 75 | 1005.6 |
| 20260507041206 | 57 | 294 | 3.0 | 8.0 | 0.00 | 0.28 | 0.00 | 75 | 1005.6 |
| 20260507040707 | 57 | 281 | 2.0 | 10.0 | 0.00 | 0.28 | 0.00 | 75 | 1005.6 |
| 20260507040208 | 57 | 308 | 4.0 | 10.0 | 0.00 | 0.28 | 0.00 | 75 | 1005.7 |
| 20260507035706 | 57 | 282 | 4.0 | 8.0 | 0.00 | 0.28 | 0.28 | 76 | 1005.5 |
| 20260507035207 | 57 | 271 | 3.0 | 8.0 | 0.00 | 0.28 | 0.28 | 76 | 1005.6 |
| 20260507034706 | 58 | 211 | 1.0 | 8.0 | 0.00 | 0.28 | 0.28 | 76 | 1005.6 |
| 20260507034206 | 58 | 246 | 2.0 | 9.0 | 0.00 | 0.28 | 0.28 | 77 | 1005.6 |
| 20260507033705 | 58 | 350 | 4.0 | 9.0 | 0.00 | 0.28 | 0.28 | 77 | 1005.6 |
| 20260507033206 | 58 | 272 | 4.0 | 8.0 | 0.00 | 0.28 | 0.28 | 77 | 1005.6 |
| 20260507032706 | 58 | 242 | 3.0 | 8.0 | 0.00 | 0.28 | 0.28 | 77 | 1005.5 |
| 20260507032207 | 58 | 264 | 2.0 | 8.0 | 0.00 | 0.28 | 0.28 | 78 | 1005.7 |
| 20260507031207 | 58 | 257 | 3.0 | 12.0 | 0.00 | 0.28 | 0.28 | 78 | 1005.2 |
| 20260507030706 | 58 | 301 | 4.0 | 12.0 | 0.00 | 0.28 | 0.28 | 79 | 1005.1 |
| 20260507030207 | 59 | 338 | 3.0 | 14.0 | 0.00 | 0.28 | 0.28 | 79 | 1005.4 |
| 20260507025706 | 59 | 298 | 7.0 | 14.0 | 0.01 | 0.28 | 0.28 | 80 | 1005.3 |